Probability
0 0 0 0 0 0 0 0 0 0 0 0 0 0 0 0 0 0 0 0 0 0 0 0 0 0 0 0 0 0 0 0 0 0 0 0 0 0 0 0 0 0 0 0
0 0 0 0 0 0 0 0 0 0 0 0 0 0 0 0 0 0 0 0 0 0 0 0 0 0 0 0 0 0 0 0 0 0 0 0 0 0 0 0 0 0 0 0
0 0 0 0 0 0 0 0 0 0 0 0 0 0 0 0 0 0 0 0 0 0 0 0 0 0 0 0 0 0 0 0 0 0 0 0 0 0 0 0 0 0 0 0
0 0 0 0 0 0 0 0 0 0 0 0 0 0 0 0 0 0 0 0 0 0 0 0 0 0 0 0 0 0 0 0 0 0 0 0 0 0 0 0 0 0 0 0
0 0 0 0 0 0 0 0 0 0 0 0 0 0 0 0 0 0 0 0 0 0 0 0 0 0 0 0 0 0 0 0 0 0 0 0 0 0 0 0 0 0 0 0
0 0 0 0 0 0 0 0 0 0 0 0 0 0 0 0 0 0 0 0 0 0 0 0 0 0 0 0 0 0 0 0 0 0 0 0 0 0 0 0 0 0 0 0
0 0 0 0 0 0 0 0 0 0 0 0 0 0 0 0 0 0 0 0 0 0 0 0 0 0 0 0 0 0 0 0 0 0 0 0 0 0 0 0 0 0 0 0
0 0 0 0 0 0 0 0 0 0 0 0 0 0 0 0 0 0 0 0 0 0 0 0 0 0 0 0 0 0 0 0 0 0 0 0 0 0 0 0 0 0 0 0
0 0 0 0 0 0 0 0 0 0 0 0 0 0 0 0 0 0 0 0 0 0 0 0 0 0 0 0 0 0 0 0 0 0 0 0 0 0 0 0 0 0 0 0
0 0 0 0 0 0 0 0 0 0 0 0 0 0 0 0 0 0 0 0 0 0 0 0 0 0 0 0 0 0 0 0 0 0 0 0 0 0 0 0 0 0 0 0
0 0 0 0 0 0 0 0 0 0 0 0 0 0 0 0 0 0 0 0 0 0 0 0 0 0 0 0 0 0 0 0 0 0 0 0 0 0 0 0 0 0 0 0
0 0 0 0 0 0 0 0 0 0 0 0 0 0 0 0 0 0 0 0 0 0 0 0 0 0 0 0 0 0 0 0 0 0 0 0 0 0 0 0 0 0 0 0
0 0 0 0 0 0 0 0 0 0 0 0 0 0 0 0 0 0 0 0 0 0 0 0 0 0 0 0 0 0 0 0 0 0 0 0 0 0 0 0 0 0 0 0
0 0 0 0 0 0 0 0 0 0 0 0 0 0 0 0 0 0 0 0 0 0 0 0 0 0 0 0 0 0 0 0 0 0 0 0 0 0 0 0 0 0 0 0
0 0 0 0 0 0 0 0 0 0 0 0 0 0 0 0 0 0 0 0 0 0 0 0 0 0 0 0 0 0 0 0 0 0 0 0 0 0 0 0 0 0 0 0
0 0 0 0 0 0 0 0 0 0 0 0 0 0 0 0 0 0 0 0 0 0 0 0 0 0 0 0 0 0 0 0 0 0 0 0 0 0 0 0 0 0 0 0
0 0 0 0 0 0 0 0 0 0 0 0 0 0 0 0 0 0 0 0 0 0 0 0 0 0 0 0 0 0 0 0 0 0 0 0 0 0 0 0 0 0 0 0
0 0 0 0 0 0 0 0 0 0 0 0 0 0 0 0 0 0 0 0 0 0 0 0 0 0 0 0 0 0 0 0 0 0 0 0 0 0 0 0 0 0 0 0
0 0 0 0 0 0 0 0 0 0 0 0 0 0 0 0 0 0 0 0 0 0 0 0 0 0 0 0 0 0 0 0 0 0 0 0 0 0 0 0 0 0 0 0
0 0 0 0 0 0 0 0 0 0 0 0 0 0 0 0 0 0 0 0 0 0 0 0 0 0 0 0 0 0 0 0 0 0 0 0 0 0 0 0 0 0 0 0
0 0 0 0 0 0 0 0 0 0 0 0 0 0 0 0 0 0 0 0 0 0 0 0 0 0 0 0 0 0 0 0 0 0 0 0 0 0 0 0 0 0 0 0
0 0 0 0 0 0 0 0 0 0 0 0 0 0 0 0 0 0 0 0 0 0 0 0 0 0 0 0 0 0 0 0 0 0 0 0 0 0 0 0 0 0 0 0
0 0 0 0 0 0 0 0 0 0 0 0 0 0 0 0 0 0 0 0 0 0 0 0 0 0 0 0 0 0 0 0 0 0 0 0 0 0 0 0 0 0 0 0
0 0 0 0 0 0 0 0 0 0 0 0 0 0 0 0 0 0 0 0 0 0 0 0 0 0 0 0 0 0 0 0 0 0 0 0 0 0 0 0 0 0 0 0
0 0 0 0 0 0 0 0 0 0 0 0 0 0 0 0 0 0 0 0 0 0 0 0 0 0 0 0 0 0 0 0 0 0 0 0 0 0 0 0 0 0 0 0
0 0 0 0 0 0 0 0 0 0 0 0 0 0 0 0 0 0 0 0 0 0 0 0 0 0 0 0 0 0 0 0 0 0 0 0 0 0 0 0 0 0 0 0
Height
5769 5769 5767 5766 5763 5761 5758 5756 5753 5749 5745 5742 5739 5736 5733 5729 5726 5723 5720 5716 5712 5710 5708 5705 5704 5702 5702 5702 5702 5703 5703 5705 5707 5710 5713 5717 5721 5724 5728 5731 5734 5738 5741 5744
5765 5764 5763 5760 5758 5756 5753 5751 5748 5745 5741 5737 5734 5732 5728 5725 5721 5718 5714 5711 5707 5705 5702 5700 5698 5696 5696 5695 5696 5696 5697 5698 5700 5703 5706 5709 5713 5716 5719 5723 5727 5730 5733 5736
5759 5759 5757 5756 5753 5751 5749 5746 5743 5740 5736 5732 5730 5728 5724 5720 5717 5713 5710 5706 5703 5699 5697 5694 5692 5690 5690 5689 5690 5690 5691 5692 5694 5696 5699 5702 5705 5708 5711 5716 5719 5722 5726 5729
5754 5753 5752 5750 5748 5746 5744 5742 5738 5735 5732 5729 5726 5723 5721 5716 5713 5709 5706 5702 5698 5695 5692 5689 5687 5685 5684 5684 5684 5684 5685 5686 5688 5690 5692 5695 5699 5702 5705 5708 5711 5715 5719 5722
5748 5748 5746 5745 5744 5741 5739 5736 5734 5730 5727 5724 5721 5718 5717 5712 5709 5705 5701 5698 5694 5691 5688 5685 5682 5680 5679 5678 5678 5679 5679 5680 5682 5683 5686 5689 5692 5695 5697 5701 5704 5707 5711 5714
5743 5741 5740 5739 5738 5736 5734 5732 5729 5726 5723 5720 5717 5713 5711 5708 5705 5701 5698 5694 5690 5687 5684 5681 5679 5677 5675 5674 5674 5674 5674 5675 5676 5677 5679 5682 5685 5688 5691 5694 5698 5701 5704 5707
5736 5735 5734 5733 5732 5731 5729 5727 5724 5720 5717 5716 5713 5708 5707 5704 5700 5697 5694 5690 5687 5684 5681 5678 5676 5674 5672 5671 5670 5669 5669 5670 5671 5672 5674 5676 5679 5681 5685 5688 5691 5694 5697 5699
5729 5729 5728 5727 5726 5725 5723 5721 5719 5716 5713 5711 5708 5704 5703 5699 5696 5692 5690 5687 5684 5680 5678 5675 5673 5671 5669 5668 5666 5666 5665 5666 5667 5667 5669 5670 5673 5675 5678 5681 5683 5686 5689 5692
5721 5721 5721 5720 5719 5718 5716 5715 5713 5710 5707 5705 5702 5700 5698 5695 5692 5689 5686 5684 5681 5678 5675 5672 5670 5668 5666 5665 5663 5662 5662 5662 5662 5662 5663 5665 5667 5669 5671 5674 5676 5678 5681 5683
5713 5713 5713 5713 5712 5711 5711 5709 5707 5704 5701 5698 5697 5696 5694 5691 5688 5686 5683 5680 5677 5675 5672 5669 5666 5665 5663 5661 5660 5659 5658 5657 5657 5658 5658 5659 5661 5663 5664 5666 5668 5670 5673 5675
5704 5705 5705 5705 5705 5705 5704 5703 5700 5698 5696 5693 5691 5694 5690 5687 5684 5682 5679 5676 5674 5671 5668 5666 5663 5661 5659 5657 5656 5655 5654 5653 5652 5653 5653 5654 5655 5656 5658 5659 5661 5663 5664 5666
5696 5696 5696 5697 5697 5696 5696 5695 5694 5692 5690 5687 5685 5689 5685 5682 5679 5677 5675 5672 5670 5667 5664 5662 5659 5657 5655 5653 5652 5650 5650 5649 5648 5648 5648 5648 5649 5650 5651 5652 5653 5654 5656 5657
5686 5687 5687 5688 5690 5689 5688 5687 5686 5685 5683 5681 5680 5683 5679 5676 5674 5673 5670 5668 5666 5663 5661 5658 5656 5653 5651 5650 5648 5646 5645 5644 5643 5643 5643 5642 5643 5644 5644 5645 5645 5646 5647 5648
5676 5677 5679 5680 5680 5680 5680 5680 5679 5677 5675 5674 5674 5674 5673 5670 5668 5667 5665 5663 5661 5659 5656 5654 5651 5649 5647 5645 5643 5641 5640 5639 5638 5638 5637 5636 5636 5636 5636 5636 5636 5637 5637 5638
5666 5667 5668 5669 5670 5669 5670 5671 5670 5669 5668 5667 5668 5667 5666 5664 5662 5661 5659 5657 5655 5653 5651 5649 5646 5644 5642 5640 5638 5637 5635 5634 5633 5632 5631 5629 5629 5629 5628 5628 5628 5628 5628 5628
5655 5657 5657 5659 5659 5659 5660 5661 5661 5661 5660 5659 5659 5659 5659 5657 5655 5654 5653 5651 5649 5647 5645 5643 5641 5639 5637 5635 5633 5631 5629 5628 5627 5625 5624 5623 5622 5621 5621 5620 5620 5619 5619 5618
5645 5646 5647 5647 5649 5648 5649 5653 5653 5652 5652 5652 5651 5652 5650 5649 5648 5647 5645 5644 5642 5641 5639 5637 5635 5633 5631 5629 5627 5625 5623 5622 5620 5619 5617 5616 5615 5614 5613 5612 5611 5611 5609 5608
5635 5635 5635 5636 5638 5637 5644 5643 5643 5642 5643 5642 5642 5642 5641 5641 5640 5639 5638 5637 5635 5633 5632 5630 5628 5626 5624 5622 5620 5618 5616 5615 5613 5612 5610 5609 5607 5606 5604 5603 5602 5601 5600 5598
5623 5624 5624 5625 5625 5627 5632 5633 5633 5632 5633 5633 5633 5633 5633 5632 5631 5631 5629 5628 5627 5625 5624 5622 5620 5619 5617 5615 5613 5611 5609 5608 5606 5605 5603 5601 5599 5597 5596 5594 5593 5591 5590 5588
5612 5613 5614 5614 5615 5616 5623 5623 5622 5623 5623 5624 5623 5623 5623 5623 5623 5623 5621 5619 5618 5617 5615 5614 5612 5610 5609 5607 5605 5604 5602 5600 5599 5597 5595 5593 5591 5589 5587 5585 5583 5581 5579 5578
5601 5601 5602 5603 5603 5606 5611 5611 5611 5613 5614 5613 5613 5613 5613 5613 5614 5613 5612 5610 5609 5608 5606 5605 5603 5602 5600 5599 5597 5596 5594 5592 5590 5588 5586 5584 5582 5580 5578 5576 5573 5571 5569 5567
5588 5590 5591 5592 5593 5599 5600 5600 5601 5601 5601 5602 5602 5602 5603 5603 5603 5602 5602 5601 5600 5598 5597 5595 5594 5592 5591 5589 5588 5587 5585 5583 5581 5579 5577 5575 5573 5570 5568 5566 5563 5561 5558 5557
5577 5580 5581 5582 5585 5587 5588 5588 5589 5589 5590 5591 5591 5592 5592 5592 5592 5592 5591 5590 5589 5588 5587 5585 5584 5583 5581 5580 5578 5577 5575 5574 5572 5570 5568 5565 5563 5560 5558 5555 5553 5550 5547 5545
5566 5568 5568 5570 5573 5575 5576 5577 5578 5578 5579 5580 5580 5581 5581 5581 5581 5581 5580 5579 5579 5578 5576 5575 5574 5572 5571 5570 5569 5567 5565 5564 5562 5560 5558 5555 5553 5550 5547 5544 5541 5538 5536 5533
5555 5556 5557 5558 5562 5563 5564 5565 5566 5567 5568 5568 5569 5570 5570 5570 5570 5570 5569 5568 5568 5567 5566 5564 5563 5562 5561 5560 5558 5556 5555 5553 5551 5549 5547 5544 5541 5539 5536 5533 5530 5527 5524 5521
5545 5545 5546 5548 5551 5551 5553 5554 5555 5555 5556 5557 5558 5559 5559 5558 5558 5558 5558 5557 5556 5555 5554 5553 5552 5551 5550 5548 5547 5545 5543 5542 5540 5538 5535 5533 5530 5527 5524 5521 5519 5515 5512 5509
Wind_Speed
18 18 18 18 18 19 20 20 21 21 21 21 20 20 20 21 21 22 22 23 22 21 20 20 20 21 22 23 23 25 26 29 30 32 33 35 37 38 39 39 37 36 36 37
19 19 19 19 19 19 20 20 21 21 21 22 20 19 20 20 21 22 22 22 21 21 21 19 19 20 22 21 23 24 26 28 29 30 31 33 35 36 38 39 38 37 36 36
19 19 19 19 20 20 20 21 21 22 22 22 21 19 19 20 21 21 21 22 21 21 19 19 19 19 20 21 22 23 25 27 28 28 31 32 33 34 35 36 37 35 34 34
20 20 20 20 20 21 21 21 22 22 22 21 21 21 20 20 20 20 21 20 21 20 19 19 19 19 19 19 21 22 23 25 27 28 28 29 31 32 33 35 35 33 33 32
21 20 20 20 20 21 21 21 21 22 21 21 22 23 21 20 20 19 19 19 19 19 17 17 18 18 18 19 20 20 21 24 26 28 28 29 30 31 33 34 34 32 31 32
21 21 21 21 21 21 21 22 22 22 22 22 22 23 22 21 20 20 19 19 19 19 18 17 17 18 17 17 18 20 20 22 25 27 28 29 30 31 32 33 34 32 32 32
23 23 22 22 22 22 22 22 23 23 23 22 22 22 22 21 20 20 20 19 19 18 18 17 17 16 17 17 18 20 20 21 23 25 26 27 29 30 32 32 32 33 33 33
25 24 23 22 22 22 22 22 23 24 24 23 22 21 21 20 20 20 20 19 19 18 17 17 16 16 16 16 17 18 20 21 22 24 24 26 28 29 31 32 32 34 35 34
27 26 24 23 23 23 22 22 23 24 25 24 22 20 20 19 19 19 19 19 18 17 17 17 16 15 15 15 16 17 19 20 21 23 25 25 28 29 30 32 32 33 34 34
28 28 26 25 24 23 24 23 23 24 25 25 23 21 20 19 18 19 19 19 18 18 18 18 17 17 16 15 15 17 17 19 20 22 23 26 28 29 30 32 32 32 33 35
30 30 29 27 25 25 25 24 24 25 25 26 25 21 20 20 19 19 19 18 18 18 18 18 18 18 17 17 16 17 17 17 19 21 23 25 26 28 31 32 32 32 34 35
31 31 31 29 28 27 26 25 25 26 26 26 26 22 22 21 20 19 19 19 19 19 18 18 18 18 18 18 17 17 17 16 18 20 22 24 25 26 27 29 31 32 34 35
33 33 33 31 30 29 28 27 27 27 28 27 26 23 23 23 22 21 20 20 19 20 19 19 19 19 19 19 18 18 17 18 18 19 20 22 25 26 28 29 31 32 33 34
35 35 34 33 31 31 30 29 29 29 29 28 26 24 23 24 24 22 21 21 20 20 20 20 21 21 21 21 20 19 19 19 20 21 22 23 25 26 27 29 31 32 33 36
37 37 35 34 33 32 31 30 30 30 30 29 26 25 24 25 25 24 23 23 22 22 22 22 22 22 22 22 21 21 21 21 22 23 23 25 26 27 27 29 30 32 34 35
37 38 37 35 34 34 33 31 30 30 30 30 28 26 25 26 26 25 24 24 24 24 24 24 23 23 23 22 22 22 23 24 24 24 25 25 25 26 27 29 29 31 32 34
38 37 38 38 36 36 35 31 30 31 31 31 30 28 27 27 27 26 26 25 26 26 26 26 25 25 24 24 24 24 24 25 25 25 26 26 26 27 28 30 30 31 32 33
39 38 38 39 38 39 34 32 31 31 30 30 30 29 28 28 28 28 27 27 27 28 27 26 26 26 26 25 25 25 25 25 26 26 27 27 27 27 28 29 31 32 34 34
39 38 38 38 39 38 34 32 31 31 30 30 31 30 30 30 30 29 29 29 29 29 29 28 28 28 29 28 27 26 26 26 27 28 28 29 29 29 30 30 32 34 35 36
39 39 39 39 39 39 34 32 32 33 32 31 32 32 32 31 32 30 31 31 31 31 31 31 30 30 30 30 29 28 28 28 28 29 30 31 31 32 32 33 34 35 36 37
38 39 39 39 39 39 35 34 34 34 34 33 33 34 33 33 33 33 32 33 32 32 32 32 32 31 31 31 31 31 31 30 30 30 31 31 32 33 34 35 36 36 37 38
39 39 39 39 41 38 36 36 35 35 35 35 35 34 34 34 35 34 34 33 33 33 33 33 33 33 32 32 32 32 33 32 32 32 33 33 34 35 35 36 36 37 37 38
39 37 38 39 39 38 37 37 37 37 37 37 37 36 35 35 36 35 35 35 34 34 34 33 33 33 33 34 33 33 34 33 33 34 34 35 35 36 37 37 38 39 39 39
39 38 38 39 38 38 37 37 38 38 38 37 37 36 36 37 37 36 36 36 35 35 34 34 34 34 34 34 35 35 35 35 34 35 36 37 37 38 38 39 39 40 40 41
39 40 40 40 38 37 38 37 37 37 37 38 38 37 37 37 38 38 37 37 37 36 36 35 35 35 35 36 36 36 36 36 36 36 37 38 38 39 39 40 40 40 40 41
37 38 40 40 39 39 37 37 37 38 37 38 38 38 38 38 38 38 38 38 37 37 36 36 37 37 37 37 37 38 38 38 38 39 39 39 39 40 40 41 41 41 41 41
Wind_Direction
288 291 295 299 301 304 306 309 313 314 314 311 311 309 307 306 307 308 307 307 303 301 300 294 283 274 268 263 258 254 247 242 241 238 236 234 233 234 235 236 238 239 240 237
285 287 292 295 299 303 307 310 313 314 314 310 308 309 308 309 310 311 310 310 310 305 301 296 289 278 270 265 259 258 251 246 245 241 236 235 234 235 236 237 237 238 240 239
284 286 288 292 296 301 305 309 312 313 312 310 307 307 310 312 312 312 312 312 313 310 304 297 292 284 274 265 259 258 254 247 244 240 238 238 236 236 236 236 236 238 239 241
282 285 287 291 294 299 304 308 311 311 311 310 310 309 313 313 313 315 315 314 314 312 307 302 295 284 277 269 262 258 255 249 245 239 237 237 237 238 238 236 236 238 238 240
282 284 286 289 293 298 302 306 308 308 307 310 311 311 315 313 314 317 317 316 315 312 308 305 298 287 281 274 267 263 259 251 247 241 238 238 238 238 240 238 237 237 237 240
281 282 283 287 291 295 299 303 305 307 307 308 311 311 314 314 315 315 315 317 314 311 309 305 300 292 284 278 271 265 263 257 250 244 241 242 240 239 239 238 237 237 239 242
279 280 282 284 288 293 297 302 305 307 307 308 311 310 313 314 316 315 316 318 319 315 312 308 301 294 286 280 273 267 265 261 255 248 244 243 241 240 238 238 239 239 241 243
278 279 280 282 285 291 295 299 303 305 307 308 308 309 312 313 315 314 315 317 320 319 317 313 306 300 293 284 277 269 264 259 256 251 247 246 243 241 239 241 241 242 243 244
277 277 277 279 282 286 291 294 298 301 303 304 305 307 308 312 313 312 312 315 317 318 315 311 307 303 297 291 283 278 267 262 258 254 250 248 246 246 244 245 246 247 245 246
273 274 274 277 279 282 286 290 294 297 301 302 303 305 305 309 310 312 311 312 314 314 312 309 308 305 299 293 286 278 273 265 261 260 257 252 249 248 247 250 252 249 248 249
271 272 272 274 277 280 282 286 289 291 294 298 300 303 304 305 305 307 309 309 312 311 310 308 309 307 303 300 292 283 275 271 266 264 262 257 254 252 252 252 253 251 252 253
269 270 270 272 274 276 278 281 285 288 290 292 295 299 301 300 300 302 305 306 307 309 308 306 305 304 301 298 293 288 280 275 271 267 264 261 258 257 256 256 255 255 256 256
266 269 270 271 272 274 276 278 280 283 285 288 291 296 295 293 295 299 301 303 305 306 304 301 300 301 299 296 293 287 283 280 276 271 267 264 262 263 261 261 260 259 259 258
265 266 269 271 273 274 275 277 278 279 282 284 287 291 290 289 291 293 296 298 300 302 300 299 297 297 297 297 293 285 283 281 281 278 272 270 270 266 265 263 262 263 263 262
264 265 267 269 269 269 271 273 275 277 279 281 285 286 288 288 288 289 290 292 294 295 297 299 299 297 296 296 292 288 285 283 283 282 277 275 273 269 269 269 269 268 268 267
265 266 266 265 267 267 268 270 272 273 275 278 280 282 282 284 283 284 286 288 290 292 294 296 296 297 296 296 293 290 287 285 283 282 279 277 276 274 273 273 273 273 272 273
264 266 266 265 265 266 267 270 270 270 272 274 276 278 278 279 282 282 283 285 287 290 292 292 293 293 294 294 294 293 290 286 284 284 281 278 278 277 276 275 275 277 277 277
264 265 266 266 265 265 268 269 269 270 270 271 273 274 276 277 279 280 282 284 286 287 289 289 290 291 291 291 291 291 290 287 286 286 285 282 280 279 279 278 278 278 278 278
262 263 264 265 266 265 265 267 269 269 269 270 271 272 274 275 277 279 280 281 282 283 285 286 287 288 288 288 289 289 288 287 287 286 286 286 285 284 283 282 281 281 280 279
260 260 262 263 266 266 267 268 268 268 268 269 270 271 272 273 276 278 280 281 282 283 284 285 285 285 285 285 285 286 287 287 287 287 287 287 286 285 283 283 283 283 282 280
258 259 260 261 264 266 268 269 269 268 269 269 270 272 273 274 276 278 280 281 282 282 282 282 283 283 284 284 283 284 286 286 286 287 288 288 288 288 287 285 283 282 282 281
257 258 259 260 261 264 267 267 266 267 268 268 270 271 273 273 276 277 278 279 280 280 280 280 280 281 281 281 282 283 285 286 285 286 286 287 287 288 288 287 285 284 283 282
257 259 259 259 260 262 263 264 265 266 268 269 269 270 272 273 275 276 277 278 278 279 279 279 279 278 279 280 281 282 283 284 284 285 285 286 287 288 288 287 286 285 284 283
257 258 259 258 259 260 261 262 264 266 268 269 269 270 272 272 273 275 277 277 278 279 279 279 278 278 278 279 281 281 282 283 284 285 286 287 288 289 289 289 287 286 285 284
257 257 258 259 259 260 259 261 263 265 266 267 268 270 272 272 272 273 275 276 277 277 278 278 278 279 278 279 279 280 281 282 283 285 287 287 288 289 289 289 289 288 287 285
257 259 260 260 259 259 258 260 261 263 265 266 268 268 269 271 272 273 274 276 276 277 278 278 278 278 279 279 279 280 281 282 283 285 287 288 289 289 289 289 289 288 288 287